Location: Karcze
(52.0945°N, 22.4786°E)
Time: 22:25:55
(UTC+00:00)

Transit 4A - Pass Details

Date: 31 July 2021
Orbit: 871 x 974 km, 66.8° (Epoch: 18 September)

Event Time Altitude Azimuth Distance (km) Brightness Sun altitude
Exits shadow 00:13:08 15° 247° (WSW) 2,166 9.4 -16.6°
Maximum altitude 00:17:44 49° 319° (NW) 1,114 8.5 -16.3°
Drops below altitude 10° 00:23:24 10° 34° (NE) 2,530 11.5 -15.9°
Sets 00:25:59 0° 40° (NE) 3,473 12.5 -15.7°
